EW6230 Weather Reports


time (UTC)temp
F
wind
direction
speed
knots
gust
knots
rain 1hr
in
rain 24hr
in
rain mn
in
humidity
%
barometer
mb
20260509203038 60 2 0.0 0.9 0.00 0.00 0.00 62 1017.4
20260509201527 61 13 0.0 0.0 0.00 0.00 0.00 62 1017.6
20260509200022 61 224 0.0 2.6 0.00 0.00 0.00 62 1017.5
20260509194518 61 269 0.0 0.9 0.00 0.00 0.00 61 1017.6
20260509193014 60 270 0.0 0.9 0.00 0.00 0.00 61 1017.5
20260509191514 61 269 0.0 0.9 0.00 0.00 0.00 62 1017.8
20260509184559 61 307 0.0 0.9 0.00 0.00 0.00 62 1018.2
20260509183055 60 290 0.0 0.9 0.00 0.00 0.00 61 1018.1
20260509181558 59 68 0.0 0.9 0.00 0.00 0.00 60 1018.1
20260509180048 59 61 0.0 0.9 0.00 0.00 0.00 59 1018.1
20260509174542 59 81 0.0 0.9 0.00 0.00 0.00 60 1018.2
20260509173041 58 94 0.0 0.9 0.00 0.00 0.00 59 1018.2
20260509171534 61 153 0.0 0.0 0.00 0.00 0.00 60 1018.4
20260509170032 60 153 0.0 0.0 0.00 0.00 0.00 55 1018.4
20260509164533 59 152 0.0 0.0 0.00 0.00 0.00 58 1018.6
20260509163018 59 152 0.0 0.0 0.00 0.00 0.00 59 1018.5
20260509161513 59 151 0.0 0.0 0.00 0.00 0.00 54 1018.5
20260509160012 58 152 0.0 0.0 0.00 0.00 0.00 45 1018.6
20260509154506 58 151 0.0 0.0 0.00 0.00 0.00 34 1018.8
20260509153106 57 152 0.0 0.0 0.00 0.00 0.00 24 1018.8
20260509151556 56 152 0.0 0.0 0.00 0.00 0.00 1 1019.0
20260509150051 52 152 0.0 0.0 0.00 0.00 0.00 1 1018.9
20260509144548 50 152 0.0 0.0 0.00 0.00 0.00 1 1019.0
20260509143042 47 152 0.0 0.0 0.00 0.00 0.00 1 1019.1
20260509141537 0 0.0 0.0 0.00 0.00 0.00 1019.1
20260509140040 0 0.0 0.0 0.00 0.00 0.00 1019.1
20260509134529 0 0.0 0.0 0.00 0.00 0.00 1019.2
20260509133025 0 0.0 0.0 0.00 0.00 0.00 1019.1
20260509131520 46 152 0.0 0.0 0.00 0.00 0.00 1 1019.3
20260509130015 46 152 0.0 0.0 0.00 0.00 0.00 1 1019.2
20260509124512 46 152 0.0 0.0 0.00 0.00 0.00 1 1019.1
20260509123016 46 152 0.0 0.0 0.00 0.00 0.00 1 1019.1
20260509121501 46 152 0.0 0.0 0.00 0.00 0.00 1 1019.1
20260509120112 46 152 0.0 0.0 0.00 0.00 0.00 1 1019.2
20260509114553 46 152 0.0 0.0 0.00 0.00 0.00 1 1019.3
20260509113053 46 152 0.0 0.0 0.00 0.00 0.00 1 1019.4
20260509111546 46 152 0.0 0.0 0.00 0.00 0.00 1 1019.5
20260509110044 46 152 0.0 0.0 0.00 0.00 0.00 1 1019.4
20260509104536 46 152 0.0 0.0 0.00 0.00 0.00 1 1019.4
20260509103036 46 152 0.0 0.0 0.00 0.00 0.00 1 1019.2
20260509101535 46 152 0.0 0.0 0.00 0.00 0.00 1 1019.3
20260509100022 46 152 0.0 0.0 0.00 0.00 0.00 1 1019.2
20260509094525 46 151 0.0 0.0 0.00 0.00 0.00 1 1019.2
20260509093014 46 151 0.0 0.0 0.00 0.00 0.00 1 1019.2
20260509091509 46 151 0.0 0.0 0.00 0.00 0.00 1 1019.2
20260509090004 45 151 0.0 0.0 0.00 0.00 0.00 1 1019.3
20260509084601 45 152 0.0 0.0 0.00 0.00 0.00 1 1019.4
20260509083057 44 151 0.0 0.0 0.00 0.00 0.00 1 1019.4
20260509081551 44 152 0.0 0.0 0.00 0.00 0.00 1 1019.4
20260509080054 44 152 0.0 0.0 0.00 0.00 0.00 1 1019.4
20260509074551 44 151 0.0 0.0 0.00 0.00 0.00 1 1019.4
20260509073107 44 151 0.0 0.0 0.00 0.00 0.00 1 1019.5
20260509071537 45 152 0.0 0.0 0.00 0.00 0.00 1 1019.4
20260509070029 45 151 0.0 0.0 0.00 0.00 0.00 1 1019.4
20260509064525 45 152 0.0 0.0 0.00 0.00 0.00 1 1019.3
20260509063025 45 152 0.0 0.0 0.00 0.00 0.00 1 1019.4
20260509061515 46 152 0.0 0.0 0.00 0.00 0.00 1 1019.3
20260509060027 46 152 0.0 0.0 0.00 0.00 0.00 1 1019.3
20260509054507 46 152 0.0 0.0 0.00 0.00 0.00 1 1019.3
20260509053002 47 152 0.0 0.0 0.00 0.00 0.00 1 1019.2
20260509051557 47 152 0.0 0.0 0.00 0.00 0.00 1 1019.2
20260509050057 47 152 0.0 0.0 0.00 0.00 0.00 1 1019.2
20260509044549 48 152 0.0 0.0 0.00 0.00 0.00 1 1019.2
20260509043048 48 152 0.0 0.0 0.00 0.00 0.00 2 1019.2
20260509041541 49 152 0.0 0.0 0.00 0.00 0.00 9 1019.1
20260509040048 49 152 0.0 0.0 0.00 0.00 0.00 21 1019.0
20260509034542 50 152 0.0 0.0 0.00 0.00 0.00 31 1018.8
20260509033026 51 152 0.0 0.0 0.00 0.00 0.00 39 1018.8
20260509031522 52 152 0.0 0.0 0.00 0.00 0.00 47 1018.7
20260509030018 53 151 0.0 0.0 0.00 0.00 0.00 52 1018.6
20260509024515 54 151 0.0 0.0 0.00 0.00 0.00 57 1018.6
20260509023010 55 153 0.0 0.0 0.00 0.00 0.00 58 1018.4
20260509021505 55 153 0.0 0.0 0.00 0.00 0.00 61 1018.3
20260509020001 55 153 0.0 0.9 0.00 0.00 0.00 63 1018.3
20260509014559 55 276 0.0 0.0 0.00 0.00 0.00 62 1018.2
20260509013055 56 276 0.0 0.0 0.00 0.00 0.00 63 1018.2
20260509011603 56 276 0.0 0.0 0.00 0.00 0.00 63 1018.3
20260509010052 56 83 0.0 0.9 0.00 0.00 0.00 63 1018.3
20260509004606 56 82 0.0 0.0 0.00 0.00 0.00 63 1018.3
20260509003045 56 82 0.0 0.9 0.00 0.00 0.00 63 1018.3
20260509001541 57 68 0.0 0.9 0.00 0.00 0.00 63 1018.3
20260509000037 56 57 0.0 0.9 0.00 0.00 0.00 63 1018.3
20260508234532 56 59 0.0 0.9 0.00 0.00 0.00 63 1018.4
20260508233028 56 93 0.0 0.0 0.00 0.00 0.00 63 1018.4
20260508231523 56 93 0.0 0.0 0.00 0.00 0.00 62 1018.2
20260508230023 56 94 0.0 0.0 0.00 0.00 0.00 63 1018.2
20260508224517 56 356 0.0 0.0 0.00 0.00 0.00 63 1018.1
20260508223030 56 357 0.0 0.0 0.00 0.00 0.00 57 1018.0
20260508221506 56 308 0.0 0.0 0.00 0.00 0.00 62 1018.0
20260508220002 57 308 0.0 0.0 0.00 0.00 0.00 61 1018.0
20260508214609 57 307 0.0 0.0 0.00 0.00 0.00 63 1018.1
20260508213054 56 300 0.0 0.0 0.00 0.00 0.00 62 1017.9
20260508211550 54 300 0.0 0.9 0.00 0.00 0.00 60 1017.9
20260508210045 54 300 0.0 0.9 0.00 0.00 0.00 60 1017.7
20260508204544 54 300 0.0 0.0 0.00 0.00 0.00 58 1017.6